Location: Beuvrequen
(50.8014°N, 1.6652°E)
Time: 20:53:33
(UTC+00:00)

Cosmos 1844 Rocket - Pass Details

Date: 16 October 2021
Orbit: 826 x 843 km, 71.0° (Epoch: 04 December)

Event Time Altitude Azimuth Distance (km) Brightness Sun altitude
Rises 19:36:58 0° 331° (NNW) 3,380 6.5 -25.6°
Reaches altitude 10° 19:39:28 10° 335° (NNW) 2,441 5.6 -25.9°
Enters shadow 19:44:33 59° 33° (NNE) 957 2.8 -26.7°
